sat.trackr.live / text

‹ back to catalog

STARLINK-1265

NORAD 45406 · 2020-019AY

PAYLOAD ACTIVE UNKNOWN

§ Identity

Operator
Country
US
Launch date
2020-03-18
Launch site
AFETR
Launch vehicle
Mass (kg)
RCS (m²)

Purposes: comms

External: N2YO · Heavens-Above · Gunter

§ Orbital elements

Epoch: 2026-09-19T18:12:41.498496Z

Period
92.99 min
Inclination
53.1518°
Eccentricity
0.0004705
Mean motion
15.48564621 rev/d
Perigee alt
417.7 km
Apogee alt
424.1 km
Semi-major
6,799.1 km
B*
8.2638e-4
RAAN
295.8367°
Arg perigee
17.9722°
Mean anomaly
342.1452°
Rev number
35,985

§ Raw data

STARLINK-12651 45406U 20019AY  26262.75881364  .00044601  00000+0  82638-3 0  99952 45406  53.1518 295.8367 0004705  17.9722 342.1452 15.48564621359851

JSON: /api/v1/satellites/45406 · /tle

For live sub-satellite position, see the globe view (requires WebGL).

§ Visibility from observer

Set your observer location to see the next 7 days of passes ≥ 10°. The values pass through the URL so the page stays shareable.

No JS? Fill the form by hand. The geolocation button needs JavaScript.